Location: Wellington
(41.3000°S, 174.7830°E)
Time: 18:41:56
(UTC+13:00)

Cosmos 1184 Rocket - Pass Details

Date: 24 January 2019
Orbit: 414 x 429 km, 81.2° (Epoch: 15 February)

Event Time Altitude Azimuth Distance (km) Brightness Sun altitude
Rises 21:24:38 0° 338° (NNW) 2,395 6.5 -6.6°
Reaches altitude 10° 21:26:43 10° 331° (NNW) 1,540 5.6 -6.9°
Maximum altitude 21:29:56 43° 258° (WSW) 630 4.2 -7.4°
Drops below altitude 10° 21:33:14 10° 184° (S) 1,569 6.2 -7.9°
Sets 21:35:23 0° 177° (S) 2,448 7.1 -8.3°
